Regional Weather Roundup
Issued by NWS Lake Charles, LA

Home | Current Version | Previous Version | Text Only | Print | Product List | Glossary On
Versions: 1 2 3 4 5 6 7 8 9 10 11 12 13 14 15 16 17 18 19 20 21 22 23 24 25 26 27 28 29 30 31 32 33 34 35 36 37 38 39 40 41 42 43 44 45 46 47 48 49 50
308
ASUS44 KLCH 301110
RWRLCH
REGIONAL WEATHER ROUNDUP
NATIONAL WEATHER SERVICE LAKE CHARLES LA
600 AM CDT TUE MAY 30 2017

Note: "fair" indicates few or no clouds below 12,000 feet with no
significant weather and/or obstructions to visibility.


ACROSS SOUTHEAST TEXAS

CITY           SKY/WX    TMP DP  RH WIND       PRES   REMARKS
BEAUMONT       CLOUDY    72  67  84 NE9       30.02R
BEAUMONT CITY  CLOUDY    73  65  78 MISG      30.04R
ORANGE         CLOUDY    72  68  88 E8        30.05R
JASPER           N/A     69  69  99 CALM      30.08R FOG
$$

ACROSS CENTRAL LOUISIANA

CITY           SKY/WX    TMP DP  RH WIND       PRES   REMARKS
LEESVILLE      CLOUDY    71  68  93 SE5       30.05R
FULLERTON      CLOUDY    71  70  96 CALM      30.03R
ALEXANDRIA INT CLOUDY    71  70  96 SE6       30.04R
ESLER FIELD    CLOUDY    69  69 100 CALM      30.06R FOG
DERIDDER       CLOUDY    71  69  95 CALM      30.07R
OAKDALE        CLOUDY    69  67  92 E3        30.07R
OPELOUSAS      HVY RAIN  68  67  96 CALM      30.07F
$$

ACROSS SOUTHWEST AND SOUTH CENTRAL LOUISIANA

CITY           SKY/WX    TMP DP  RH WIND       PRES   REMARKS
SULPHUR        HVY RAIN  71  70  99 E13       30.04S
LAKE CHARLES   HVY RAIN  71  71 100 NE7       30.03F FOG
CHENNAULT INT  LGT RAIN  70  68  94 CALM      30.04S
CAMERON PHI    NOT AVBL
DEQUINCY       CLOUDY    69  65  87 CALM      30.05R
JENNINGS       RAIN      69  68  98 N7        30.05S
LAFAYETTE      LGT RAIN  69  69 100 N7        30.05R
NEW IBERIA     CLOUDY    71  67  87 NE9       30.04R
ABBEVILLE      FAIR      70  70 100 NE3       30.05R
PATTERSON      CLOUDY    72  71  97 E8        30.03R
SALT POINT       N/A     73  70  90 VRB5      29.99S
$$

SELECTED SITES ACROSS THE REGION

CITY           SKY/WX    TMP DP  RH WIND       PRES   REMARKS
HOUSTON BUSH   PTCLDY    71  68  90 N7        30.02S
HOUSTON HOBBY  PTCLDY    72  69  90 N7        30.01R
GALVESTON      MOCLDY    79  74  84 E10       30.00R
COLLEGE STAT   PTCLDY    70  69  97 NE3       30.04F
CONROE         PTCLDY    66  66 100 CALM      30.04S FOG
HUNTSVILLE     FOG       69  67  93 CALM      30.04F VSB 1/4
LUFKIN         FOG       67  67 100 CALM      30.05R VSB 1/2
SHREVEPORT     PTCLDY    67  66  97 CALM      30.06R FOG
MONROE         PTCLDY    70  68  93 S3        30.07R
NATCHEZ MS     CLOUDY    69  67  93 CALM      30.08R
BATON ROUGE    LGT RAIN  69  68  96 NE12      30.07R FOG
N.O. INTL ARPT CLOUDY    72  70  93 E8        30.06F
SLIDELL        TSTM      71  70  96 NE7       30.10R FOG
$$

MARINE REPORTS

STATION/POSITION TIME  SKY/WX   TEMP    WIND        PRES    VSBY
                                AIR SEA DIR/SP/G
                 (UTC)          (F)     (DEG/KT/KT) (MB)    (MI)
BUOY 30 S HIGH I NOT AVBL
SEA RIM ST PARK  1100            71      60/  8/ 11 1016.7R
PORT ARTHUR      1048                    80/  9/ 13   N/A
SABINE PASS N    1048                    60/  8/ 12   N/A
TEXAS POINT      NOT AVBL
CALCASIEU PASS   1048            71 79   70/  8/  9   N/A
LK CHARLES BEACH 1048            70 77              1017.5R
MARSH ISLAND     1000            76                   N/A
FRESH WATER LOCK 1048            74 81   40/  6/  9 1015.8R
AMERADA PASS     1048            73 75   70/  5/  9 1015.9S
$$




USA.gov is the U.S. government's official web portal to all federal, state and local government web resources and services.